Year,Month,Day,Hour,Minute,Value (Times are PST for temperature in C)
2015,06,30,00,00,20.50
2015,06,30,00,01,20.50
2015,06,30,00,02,20.50
2015,06,30,00,03,20.50
2015,06,30,00,04,20.50
2015,06,30,00,05,20.50
2015,06,30,00,06,20.50
2015,06,30,00,07,20.40
2015,06,30,00,08,20.40
2015,06,30,00,09,20.40
2015,06,30,00,10,20.40
2015,06,30,00,11,20.40
2015,06,30,00,12,20.30
2015,06,30,00,13,20.30
2015,06,30,00,14,20.30
2015,06,30,00,15,20.30
2015,06,30,00,16,20.30
2015,06,30,00,17,20.30
2015,06,30,00,18,20.30
2015,06,30,00,19,20.20
2015,06,30,00,20,20.20
2015,06,30,00,21,20.10
2015,06,30,00,22,20.10
2015,06,30,00,23,19.90
2015,06,30,00,24,19.90
2015,06,30,00,25,19.90
2015,06,30,00,26,19.90
2015,06,30,00,27,19.90
2015,06,30,00,28,19.90
2015,06,30,00,29,19.90
2015,06,30,00,30,19.90
2015,06,30,00,31,19.90
2015,06,30,00,32,19.90
2015,06,30,00,33,19.90
2015,06,30,00,34,20.00
2015,06,30,00,35,20.10
2015,06,30,00,36,20.10
2015,06,30,00,37,20.10
2015,06,30,00,38,20.10
2015,06,30,00,39,20.10
2015,06,30,00,40,20.10
2015,06,30,00,41,20.20
2015,06,30,00,42,20.20
2015,06,30,00,43,20.20
2015,06,30,00,44,20.10
2015,06,30,00,45,20.10
2015,06,30,00,46,20.00
2015,06,30,00,47,19.90
2015,06,30,00,48,19.90
2015,06,30,00,49,19.90
2015,06,30,00,50,19.90
2015,06,30,00,51,19.80
2015,06,30,00,52,19.80
2015,06,30,00,53,19.80
2015,06,30,00,54,19.80
2015,06,30,00,55,19.70
2015,06,30,00,56,19.70
2015,06,30,00,57,19.70
2015,06,30,00,58,19.60
2015,06,30,00,59,19.60
2015,06,30,01,00,19.60
2015,06,30,01,01,19.50
2015,06,30,01,02,19.50
2015,06,30,01,03,19.50
2015,06,30,01,04,19.50
2015,06,30,01,05,19.50
2015,06,30,01,06,19.50
2015,06,30,01,07,19.50
2015,06,30,01,08,19.50
2015,06,30,01,09,19.50
2015,06,30,01,10,19.50
2015,06,30,01,11,19.60
2015,06,30,01,12,19.60
2015,06,30,01,13,19.50
2015,06,30,01,14,19.50
2015,06,30,01,15,19.40
2015,06,30,01,16,19.40
2015,06,30,01,17,19.30
2015,06,30,01,18,19.20
2015,06,30,01,19,19.20
2015,06,30,01,20,19.10
2015,06,30,01,21,19.10
2015,06,30,01,22,19.10
2015,06,30,01,23,19.10
2015,06,30,01,24,19.10
2015,06,30,01,25,19.10
2015,06,30,01,26,19.10
2015,06,30,01,27,19.10
2015,06,30,01,28,19.00
2015,06,30,01,29,18.90
2015,06,30,01,30,18.90
2015,06,30,01,31,18.90
2015,06,30,01,32,18.80
2015,06,30,01,33,18.80
2015,06,30,01,34,18.80
2015,06,30,01,35,18.70
2015,06,30,01,36,18.70
2015,06,30,01,37,18.70
2015,06,30,01,38,18.60
2015,06,30,01,39,18.60
2015,06,30,01,40,18.60
2015,06,30,01,41,18.60
2015,06,30,01,42,18.50
2015,06,30,01,43,18.50
2015,06,30,01,44,18.50
2015,06,30,01,45,18.50
2015,06,30,01,46,18.50
2015,06,30,01,47,18.50
2015,06,30,01,48,18.40
2015,06,30,01,49,18.40
2015,06,30,01,50,18.40
2015,06,30,01,51,18.40
2015,06,30,01,52,18.40
2015,06,30,01,53,18.40
2015,06,30,01,54,18.30
2015,06,30,01,55,18.30
2015,06,30,01,56,18.30
2015,06,30,01,57,18.30
2015,06,30,01,58,18.30
2015,06,30,01,59,18.30
2015,06,30,02,00,18.30
2015,06,30,02,01,18.30
2015,06,30,02,02,18.30
2015,06,30,02,03,18.30
2015,06,30,02,04,18.30
2015,06,30,02,05,18.30
2015,06,30,02,06,18.30
2015,06,30,02,07,18.30
2015,06,30,02,08,18.30
2015,06,30,02,09,18.30
2015,06,30,02,10,18.30
2015,06,30,02,11,18.30
2015,06,30,02,12,18.20
2015,06,30,02,13,18.20
2015,06,30,02,14,18.20
2015,06,30,02,15,18.20
2015,06,30,02,16,18.20
2015,06,30,02,17,18.20
2015,06,30,02,18,18.20
2015,06,30,02,19,18.20
2015,06,30,02,20,18.20
2015,06,30,02,21,18.20
2015,06,30,02,22,18.20
2015,06,30,02,23,18.20
2015,06,30,02,24,18.20
2015,06,30,02,25,18.20
2015,06,30,02,26,18.20
2015,06,30,02,27,18.20
2015,06,30,02,28,18.20
2015,06,30,02,29,18.20
2015,06,30,02,30,18.20
2015,06,30,02,31,18.20
2015,06,30,02,32,18.20
2015,06,30,02,33,18.20
2015,06,30,02,34,18.20
2015,06,30,02,35,18.20
2015,06,30,02,36,18.20
2015,06,30,02,37,18.20
2015,06,30,02,38,18.20
2015,06,30,02,39,18.20
2015,06,30,02,40,18.20
2015,06,30,02,41,18.20
2015,06,30,02,42,18.20
2015,06,30,02,43,18.20
2015,06,30,02,44,18.20
2015,06,30,02,45,18.20
2015,06,30,02,46,18.20
2015,06,30,02,47,18.20
2015,06,30,02,48,18.20
2015,06,30,02,49,18.10
2015,06,30,02,50,18.10
2015,06,30,02,51,18.10
2015,06,30,02,52,18.10
2015,06,30,02,53,18.10
2015,06,30,02,54,18.00
2015,06,30,02,55,17.90
2015,06,30,02,56,17.90
2015,06,30,02,57,17.90
2015,06,30,02,58,17.90
2015,06,30,02,59,17.90
2015,06,30,03,00,17.90
2015,06,30,03,01,17.80
2015,06,30,03,02,17.80
2015,06,30,03,03,17.80
2015,06,30,03,04,17.80
2015,06,30,03,05,17.70
2015,06,30,03,06,17.70
2015,06,30,03,07,17.70
2015,06,30,03,08,17.70
2015,06,30,03,09,17.70
2015,06,30,03,10,17.70
2015,06,30,03,11,17.70
2015,06,30,03,12,17.60
2015,06,30,03,13,17.60
2015,06,30,03,14,17.60
2015,06,30,03,15,17.60
2015,06,30,03,16,17.60
2015,06,30,03,17,17.60
2015,06,30,03,18,17.60
2015,06,30,03,19,17.60
2015,06,30,03,20,17.60
2015,06,30,03,21,17.60
2015,06,30,03,22,17.60
2015,06,30,03,23,17.60
2015,06,30,03,24,17.60
2015,06,30,03,25,17.60
2015,06,30,03,26,17.60
2015,06,30,03,27,17.60
2015,06,30,03,28,17.60
2015,06,30,03,29,17.60
2015,06,30,03,30,17.60
2015,06,30,03,31,17.50
2015,06,30,03,32,17.50
2015,06,30,03,33,17.50
2015,06,30,03,34,17.50
2015,06,30,03,35,17.50
2015,06,30,03,36,17.40
2015,06,30,03,37,17.40
2015,06,30,03,38,17.40
2015,06,30,03,39,17.30
2015,06,30,03,40,17.30
2015,06,30,03,41,17.30
2015,06,30,03,42,17.30
2015,06,30,03,43,17.30
2015,06,30,03,44,17.30
2015,06,30,03,45,17.20
2015,06,30,03,46,17.20
2015,06,30,03,47,17.20
2015,06,30,03,48,17.20
2015,06,30,03,49,17.20
2015,06,30,03,50,17.20
2015,06,30,03,51,17.20
2015,06,30,03,52,17.20
2015,06,30,03,53,17.10
2015,06,30,03,54,17.10
2015,06,30,03,55,17.10
2015,06,30,03,56,17.10
2015,06,30,03,57,17.10
2015,06,30,03,58,17.10
2015,06,30,03,59,17.10
2015,06,30,04,00,17.20
2015,06,30,04,01,17.20
2015,06,30,04,02,17.10
2015,06,30,04,03,17.10
2015,06,30,04,04,17.10
2015,06,30,04,05,17.10
2015,06,30,04,06,17.10
2015,06,30,04,07,17.10
2015,06,30,04,08,17.10
2015,06,30,04,09,17.00
2015,06,30,04,10,17.00
2015,06,30,04,11,17.00
2015,06,30,04,12,17.00
2015,06,30,04,13,17.00
2015,06,30,04,14,17.00
2015,06,30,04,15,16.90
2015,06,30,04,16,16.90
2015,06,30,04,17,16.90
2015,06,30,04,18,16.90
2015,06,30,04,19,16.90
2015,06,30,04,20,16.90
2015,06,30,04,21,16.80
2015,06,30,04,22,16.80
2015,06,30,04,23,16.80
2015,06,30,04,24,16.80
2015,06,30,04,25,16.70
2015,06,30,04,26,16.70
2015,06,30,04,27,16.70
2015,06,30,04,28,16.70
2015,06,30,04,29,16.70
2015,06,30,04,30,16.70
2015,06,30,04,31,16.70
2015,06,30,04,32,16.60
2015,06,30,04,33,16.60
2015,06,30,04,34,16.60
2015,06,30,04,35,16.60
2015,06,30,04,36,16.50
2015,06,30,04,37,16.40
2015,06,30,04,38,16.40
2015,06,30,04,39,16.40
2015,06,30,04,40,16.40
2015,06,30,04,41,16.40
2015,06,30,04,42,16.40
2015,06,30,04,43,16.40
2015,06,30,04,44,16.40
2015,06,30,04,45,16.30
2015,06,30,04,46,16.30
2015,06,30,04,47,16.20
2015,06,30,04,48,16.20
2015,06,30,04,49,16.10
2015,06,30,04,50,16.00
2015,06,30,04,51,15.90
2015,06,30,04,52,15.80
2015,06,30,04,53,15.80
2015,06,30,04,54,15.70
2015,06,30,04,55,15.60
2015,06,30,04,56,15.50
2015,06,30,04,57,15.50
2015,06,30,04,58,15.40
2015,06,30,04,59,15.30
2015,06,30,05,00,15.30
2015,06,30,05,01,15.30
2015,06,30,05,02,15.30
2015,06,30,05,03,15.30
2015,06,30,05,04,15.20
2015,06,30,05,05,15.20
2015,06,30,05,06,15.20
2015,06,30,05,07,15.20
2015,06,30,05,08,15.20
2015,06,30,05,09,15.20
2015,06,30,05,10,15.10
2015,06,30,05,11,15.10
2015,06,30,05,12,15.10
2015,06,30,05,13,15.10
2015,06,30,05,14,15.10
2015,06,30,05,15,15.10
2015,06,30,05,16,15.00
2015,06,30,05,17,15.00
2015,06,30,05,18,15.00
2015,06,30,05,19,15.00
2015,06,30,05,20,14.90
2015,06,30,05,21,14.90
2015,06,30,05,22,14.90
2015,06,30,05,23,14.90
2015,06,30,05,24,14.90
2015,06,30,05,25,14.80
2015,06,30,05,26,14.80
2015,06,30,05,27,14.80
2015,06,30,05,28,14.80
2015,06,30,05,29,14.80
2015,06,30,05,30,14.80
2015,06,30,05,31,14.80
2015,06,30,05,32,14.80
2015,06,30,05,33,14.80
2015,06,30,05,34,14.80
2015,06,30,05,35,14.80
2015,06,30,05,36,14.80
2015,06,30,05,37,14.80
2015,06,30,05,38,14.80
2015,06,30,05,39,14.80
2015,06,30,05,40,14.80
2015,06,30,05,41,14.90
2015,06,30,05,42,14.90
2015,06,30,05,43,14.90
2015,06,30,05,44,14.90
2015,06,30,05,45,15.00
2015,06,30,05,46,15.00
2015,06,30,05,47,15.10
2015,06,30,05,48,15.10
2015,06,30,05,49,15.10
2015,06,30,05,50,15.10
2015,06,30,05,51,15.20
2015,06,30,05,52,15.20
2015,06,30,05,53,15.20
2015,06,30,05,54,15.20
2015,06,30,05,55,15.20
2015,06,30,05,56,15.20
2015,06,30,05,57,15.20
2015,06,30,05,58,15.20
2015,06,30,05,59,15.20
2015,06,30,06,00,15.20
2015,06,30,06,01,15.20
2015,06,30,06,02,15.30
2015,06,30,06,03,15.30
2015,06,30,06,04,15.30
2015,06,30,06,05,15.30
2015,06,30,06,06,15.30
2015,06,30,06,07,15.30
2015,06,30,06,08,15.30
2015,06,30,06,09,15.30
2015,06,30,06,10,15.30
2015,06,30,06,11,15.30
2015,06,30,06,12,15.30
2015,06,30,06,13,15.30
2015,06,30,06,14,15.30
2015,06,30,06,15,15.30
2015,06,30,06,16,15.30
2015,06,30,06,17,15.30
2015,06,30,06,18,15.30
2015,06,30,06,19,15.30
2015,06,30,06,20,15.30
2015,06,30,06,21,15.30
2015,06,30,06,22,15.20
2015,06,30,06,23,15.20
2015,06,30,06,24,15.20
2015,06,30,06,25,15.10
2015,06,30,06,26,15.10
2015,06,30,06,27,15.10
2015,06,30,06,28,15.10
2015,06,30,06,29,15.10
2015,06,30,06,30,15.00
2015,06,30,06,31,15.00
2015,06,30,06,32,15.00
2015,06,30,06,33,14.90
2015,06,30,06,34,14.90
2015,06,30,06,35,14.90
2015,06,30,06,36,14.80
2015,06,30,06,37,14.80
2015,06,30,06,38,14.80
2015,06,30,06,39,14.80
2015,06,30,06,40,14.80
2015,06,30,06,41,14.80
2015,06,30,06,42,14.80
2015,06,30,06,43,14.80
2015,06,30,06,44,14.80
2015,06,30,06,45,14.80
2015,06,30,06,46,14.80
2015,06,30,06,47,14.80
2015,06,30,06,48,14.80
2015,06,30,06,49,14.80
2015,06,30,06,50,14.80
2015,06,30,06,51,14.80
2015,06,30,06,52,14.70
2015,06,30,06,53,14.70
2015,06,30,06,54,14.70
2015,06,30,06,55,14.80
2015,06,30,06,56,14.80
2015,06,30,06,57,14.80
2015,06,30,06,58,14.80
2015,06,30,06,59,14.70
2015,06,30,07,00,14.70
2015,06,30,07,01,14.70
2015,06,30,07,02,14.70
2015,06,30,07,03,14.70
2015,06,30,07,04,14.70
2015,06,30,07,05,14.70
2015,06,30,07,06,14.70
2015,06,30,07,07,14.70
2015,06,30,07,08,14.60
2015,06,30,07,09,14.60
2015,06,30,07,10,14.50
2015,06,30,07,11,14.50
2015,06,30,07,12,14.50
2015,06,30,07,13,14.50
2015,06,30,07,14,14.50
2015,06,30,07,15,14.40
2015,06,30,07,16,14.40
2015,06,30,07,17,14.40
2015,06,30,07,18,14.40
2015,06,30,07,19,14.40
2015,06,30,07,20,14.40
2015,06,30,07,21,14.40
2015,06,30,07,22,14.50
2015,06,30,07,23,14.40
2015,06,30,07,24,14.40
2015,06,30,07,25,14.50
2015,06,30,07,26,14.50
2015,06,30,07,27,14.50
2015,06,30,07,28,14.50
2015,06,30,07,29,14.60
2015,06,30,07,30,14.60
2015,06,30,07,31,14.60
2015,06,30,07,32,14.70
2015,06,30,07,33,14.70
2015,06,30,07,34,14.80
2015,06,30,07,35,14.80
2015,06,30,07,36,14.80
2015,06,30,07,37,14.80
2015,06,30,07,38,14.90
2015,06,30,07,39,14.90
2015,06,30,07,40,15.00
2015,06,30,07,41,15.00
2015,06,30,07,42,15.10
2015,06,30,07,43,15.20
2015,06,30,07,44,15.30
2015,06,30,07,45,15.30
2015,06,30,07,46,15.30
2015,06,30,07,47,15.30
2015,06,30,07,48,15.20
2015,06,30,07,49,15.30
2015,06,30,07,50,15.30
2015,06,30,07,51,15.20
2015,06,30,07,52,15.20
2015,06,30,07,53,15.20
2015,06,30,07,54,15.20
2015,06,30,07,55,15.20
2015,06,30,07,56,15.10
2015,06,30,07,57,15.10
2015,06,30,07,58,15.10
2015,06,30,07,59,15.20
2015,06,30,08,00,15.20
2015,06,30,08,01,15.20
2015,06,30,08,02,15.30
2015,06,30,08,03,15.30
2015,06,30,08,04,15.30
2015,06,30,08,05,15.40
2015,06,30,08,06,15.40
2015,06,30,08,07,15.40
2015,06,30,08,08,15.40
2015,06,30,08,09,15.30
2015,06,30,08,10,15.30
2015,06,30,08,11,15.30
2015,06,30,08,12,15.20
2015,06,30,08,13,15.20
2015,06,30,08,14,15.10
2015,06,30,08,15,15.10
2015,06,30,08,16,15.10
2015,06,30,08,17,15.10
2015,06,30,08,18,15.20
2015,06,30,08,19,15.10
2015,06,30,08,20,15.10
2015,06,30,08,21,15.20
2015,06,30,08,22,15.30
2015,06,30,08,23,15.30
2015,06,30,08,24,15.30
2015,06,30,08,25,15.40
2015,06,30,08,26,15.50
2015,06,30,08,27,15.50
2015,06,30,08,28,15.50
2015,06,30,08,29,15.50
2015,06,30,08,30,15.50
2015,06,30,08,31,15.50
2015,06,30,08,32,15.50
2015,06,30,08,33,15.50
2015,06,30,08,34,15.50
2015,06,30,08,35,15.60
2015,06,30,08,36,15.50
2015,06,30,08,37,15.50
2015,06,30,08,38,15.50
2015,06,30,08,39,15.60
2015,06,30,08,40,15.60
2015,06,30,08,41,15.60
2015,06,30,08,42,15.60
2015,06,30,08,43,15.60
2015,06,30,08,44,15.60
2015,06,30,08,45,15.70
2015,06,30,08,46,15.80
2015,06,30,08,47,15.80
2015,06,30,08,48,15.80
2015,06,30,08,49,15.80
2015,06,30,08,50,15.90
2015,06,30,08,51,16.00
2015,06,30,08,52,16.20
2015,06,30,08,53,16.30
2015,06,30,08,54,16.30
2015,06,30,08,55,16.40
2015,06,30,08,56,16.60
2015,06,30,08,57,16.60
2015,06,30,08,58,16.70
2015,06,30,08,59,16.70
2015,06,30,09,00,16.70
2015,06,30,09,01,16.80
2015,06,30,09,02,16.90
2015,06,30,09,03,16.90
2015,06,30,09,04,17.10
2015,06,30,09,05,17.20
2015,06,30,09,06,17.30
2015,06,30,09,07,17.30
2015,06,30,09,08,17.40
2015,06,30,09,09,17.50
2015,06,30,09,10,17.70
2015,06,30,09,11,17.80
2015,06,30,09,12,17.90
2015,06,30,09,13,17.90
2015,06,30,09,14,17.90
2015,06,30,09,15,17.90
2015,06,30,09,16,17.90
2015,06,30,09,17,17.90
2015,06,30,09,18,17.90
2015,06,30,09,19,17.90
2015,06,30,09,20,17.80
2015,06,30,09,21,17.70
2015,06,30,09,22,17.70
2015,06,30,09,23,17.60
2015,06,30,09,24,17.60
2015,06,30,09,25,17.70
2015,06,30,09,26,17.80
2015,06,30,09,27,17.90
2015,06,30,09,28,17.90
2015,06,30,09,29,17.90
2015,06,30,09,30,17.90
2015,06,30,09,31,17.90
2015,06,30,09,32,17.90
2015,06,30,09,33,18.10
2015,06,30,09,34,18.10
2015,06,30,09,35,18.20
2015,06,30,09,36,18.10
2015,06,30,09,37,18.10
2015,06,30,09,38,17.90
2015,06,30,09,39,17.90
2015,06,30,09,40,17.80
2015,06,30,09,41,17.90
2015,06,30,09,42,17.90
2015,06,30,09,43,17.90
2015,06,30,09,44,17.90
2015,06,30,09,45,17.90
2015,06,30,09,46,17.90
2015,06,30,09,47,17.90
2015,06,30,09,48,17.90
2015,06,30,09,49,17.90
2015,06,30,09,50,17.90
2015,06,30,09,51,17.90
2015,06,30,09,52,18.00
2015,06,30,09,53,18.10
2015,06,30,09,54,18.20
2015,06,30,09,55,18.30
2015,06,30,09,56,18.30
2015,06,30,09,57,18.40
2015,06,30,09,58,18.40
2015,06,30,09,59,18.40
2015,06,30,10,00,18.40
2015,06,30,10,01,18.50
2015,06,30,10,02,18.50
2015,06,30,10,03,18.60
2015,06,30,10,04,18.60
2015,06,30,10,05,18.80
2015,06,30,10,06,18.90
2015,06,30,10,07,19.00
2015,06,30,10,08,19.10
2015,06,30,10,09,19.20
2015,06,30,10,10,19.30
2015,06,30,10,11,19.30
2015,06,30,10,12,19.30
2015,06,30,10,13,19.20
2015,06,30,10,14,19.20
2015,06,30,10,15,19.20
2015,06,30,10,16,19.10
2015,06,30,10,17,19.10
2015,06,30,10,18,19.10
2015,06,30,10,19,19.10
2015,06,30,10,20,19.10
2015,06,30,10,21,19.10
2015,06,30,10,22,19.10
2015,06,30,10,23,19.10
2015,06,30,10,24,19.10
2015,06,30,10,25,19.00
2015,06,30,10,26,18.90
2015,06,30,10,27,18.70
2015,06,30,10,28,18.60
2015,06,30,10,29,18.60
2015,06,30,10,30,18.60
2015,06,30,10,31,18.60
2015,06,30,10,32,18.70
2015,06,30,10,33,18.80
2015,06,30,10,34,18.90
2015,06,30,10,35,19.10
2015,06,30,10,36,19.20
2015,06,30,10,37,19.30
2015,06,30,10,38,19.60
2015,06,30,10,39,19.80
2015,06,30,10,40,20.00
2015,06,30,10,41,20.20
2015,06,30,10,42,20.30
2015,06,30,10,43,20.40
2015,06,30,10,44,20.50
2015,06,30,10,45,20.60
2015,06,30,10,46,20.70
2015,06,30,10,47,20.80
2015,06,30,10,48,20.80
2015,06,30,10,49,20.90
2015,06,30,10,50,21.00
2015,06,30,10,51,21.10
2015,06,30,10,52,21.10
2015,06,30,10,53,21.10
2015,06,30,10,54,21.10
2015,06,30,10,55,21.00
2015,06,30,10,56,20.90
2015,06,30,10,57,20.70
2015,06,30,10,58,20.60
2015,06,30,10,59,20.50
2015,06,30,11,00,20.50
2015,06,30,11,01,20.50
2015,06,30,11,02,20.40
2015,06,30,11,03,20.30
2015,06,30,11,04,20.20
2015,06,30,11,05,20.00
2015,06,30,11,06,19.90
2015,06,30,11,07,19.80
2015,06,30,11,08,19.80
2015,06,30,11,09,19.90
2015,06,30,11,10,19.90
2015,06,30,11,11,20.00
2015,06,30,11,12,20.10
2015,06,30,11,13,20.20
2015,06,30,11,14,20.40
2015,06,30,11,15,20.40
2015,06,30,11,16,20.40
2015,06,30,11,17,20.50
2015,06,30,11,18,20.60
2015,06,30,11,19,20.70
2015,06,30,11,20,20.70
2015,06,30,11,21,20.80
2015,06,30,11,22,20.80
2015,06,30,11,23,20.70
2015,06,30,11,24,20.50
2015,06,30,11,25,20.40
2015,06,30,11,26,20.30
2015,06,30,11,27,20.20
2015,06,30,11,28,20.10
2015,06,30,11,29,19.90
2015,06,30,11,30,19.70
2015,06,30,11,31,19.40
2015,06,30,11,32,19.30
2015,06,30,11,33,19.00
2015,06,30,11,34,18.90
2015,06,30,11,35,18.90
2015,06,30,11,36,19.00
2015,06,30,11,37,19.10
2015,06,30,11,38,19.10
2015,06,30,11,39,19.10
2015,06,30,11,40,19.10
2015,06,30,11,41,19.10
2015,06,30,11,42,19.10
2015,06,30,11,43,19.10
2015,06,30,11,44,19.10
2015,06,30,11,45,19.10
2015,06,30,11,46,19.30
2015,06,30,11,47,19.40
2015,06,30,11,48,19.60
2015,06,30,11,49,19.60
2015,06,30,11,50,19.80
2015,06,30,11,51,19.90
2015,06,30,11,52,19.90
2015,06,30,11,53,19.70
2015,06,30,11,54,19.70
2015,06,30,11,55,19.70
2015,06,30,11,56,19.80
2015,06,30,11,57,19.90
2015,06,30,11,58,19.90
2015,06,30,11,59,19.90
2015,06,30,12,00,19.90
2015,06,30,12,01,19.90
2015,06,30,12,02,19.90
2015,06,30,12,03,19.90
2015,06,30,12,04,19.90
2015,06,30,12,05,19.80
2015,06,30,12,06,19.80
2015,06,30,12,07,19.90
2015,06,30,12,08,19.70
2015,06,30,12,09,19.60
2015,06,30,12,10,19.50
2015,06,30,12,11,19.60
2015,06,30,12,12,19.70
2015,06,30,12,13,19.80
2015,06,30,12,14,19.70
2015,06,30,12,15,19.80
2015,06,30,12,16,19.80
2015,06,30,12,17,19.80
2015,06,30,12,18,19.80
2015,06,30,12,19,19.90
2015,06,30,12,20,19.80
2015,06,30,12,21,19.80
2015,06,30,12,22,19.90
2015,06,30,12,23,20.00
2015,06,30,12,24,20.00
2015,06,30,12,25,19.90
2015,06,30,12,26,19.90
2015,06,30,12,27,19.90
2015,06,30,12,28,19.80
2015,06,30,12,29,19.70
2015,06,30,12,30,19.60
2015,06,30,12,31,19.40
2015,06,30,12,32,19.10
2015,06,30,12,33,19.00
2015,06,30,12,34,18.90
2015,06,30,12,35,18.90
2015,06,30,12,36,18.90
2015,06,30,12,37,19.00
2015,06,30,12,38,19.00
2015,06,30,12,39,18.90
2015,06,30,12,40,18.80
2015,06,30,12,41,18.80
2015,06,30,12,42,18.80
2015,06,30,12,43,18.60
2015,06,30,12,44,18.50
2015,06,30,12,45,18.50
2015,06,30,12,46,18.40
2015,06,30,12,47,18.40
2015,06,30,12,48,18.40
2015,06,30,12,49,18.50
2015,06,30,12,50,18.50
2015,06,30,12,51,18.50
2015,06,30,12,52,18.50
2015,06,30,12,53,18.60
2015,06,30,12,54,18.50
2015,06,30,12,55,18.40
2015,06,30,12,56,18.40
2015,06,30,12,57,18.40
2015,06,30,12,58,18.50
2015,06,30,12,59,18.60
2015,06,30,13,00,18.80
2015,06,30,13,01,18.80
2015,06,30,13,02,18.70
2015,06,30,13,03,18.70
2015,06,30,13,04,18.60
2015,06,30,13,05,18.60
2015,06,30,13,06,18.50
2015,06,30,13,07,18.50
2015,06,30,13,08,18.40
2015,06,30,13,09,18.30
2015,06,30,13,10,18.20
2015,06,30,13,11,18.10
2015,06,30,13,12,18.00
2015,06,30,13,13,17.90
2015,06,30,13,14,17.90
2015,06,30,13,15,18.00
2015,06,30,13,16,18.00
2015,06,30,13,17,17.90
2015,06,30,13,18,17.90
2015,06,30,13,19,17.90
2015,06,30,13,20,17.80
2015,06,30,13,21,17.80
2015,06,30,13,22,17.80
2015,06,30,13,23,17.80
2015,06,30,13,24,17.80
2015,06,30,13,25,17.90
2015,06,30,13,26,17.90
2015,06,30,13,27,17.90
2015,06,30,13,28,17.90
2015,06,30,13,29,17.90
2015,06,30,13,30,17.80
2015,06,30,13,31,17.70
2015,06,30,13,32,17.70
2015,06,30,13,33,17.70
2015,06,30,13,34,17.80
2015,06,30,13,35,17.70
2015,06,30,13,36,17.60
2015,06,30,13,37,17.60
2015,06,30,13,38,17.60
2015,06,30,13,39,17.60
2015,06,30,13,40,17.50
2015,06,30,13,41,17.50
2015,06,30,13,42,17.30
2015,06,30,13,43,17.10
2015,06,30,13,44,17.00
2015,06,30,13,45,17.00
2015,06,30,13,46,16.90
2015,06,30,13,47,16.90
2015,06,30,13,48,17.00
2015,06,30,13,49,17.20
2015,06,30,13,50,17.30
2015,06,30,13,51,17.30
2015,06,30,13,52,17.30
2015,06,30,13,53,17.40
2015,06,30,13,54,17.50
2015,06,30,13,55,17.50
2015,06,30,13,56,17.60
2015,06,30,13,57,17.60
2015,06,30,13,58,17.70
2015,06,30,13,59,17.80
2015,06,30,14,00,17.80
2015,06,30,14,01,17.80
2015,06,30,14,02,17.80
2015,06,30,14,03,17.80
2015,06,30,14,04,17.70
2015,06,30,14,05,17.70
2015,06,30,14,06,17.70
2015,06,30,14,07,17.80
2015,06,30,14,08,17.70
2015,06,30,14,09,17.60
2015,06,30,14,10,17.50
2015,06,30,14,11,17.50
2015,06,30,14,12,17.30
2015,06,30,14,13,17.20
2015,06,30,14,14,17.00
2015,06,30,14,15,17.00
2015,06,30,14,16,16.80
2015,06,30,14,17,16.80
2015,06,30,14,18,16.80
2015,06,30,14,19,16.80
2015,06,30,14,20,16.70
2015,06,30,14,21,16.60
2015,06,30,14,22,16.50
2015,06,30,14,23,16.40
2015,06,30,14,24,16.40
2015,06,30,14,25,16.30
2015,06,30,14,26,16.30
2015,06,30,14,27,16.30
2015,06,30,14,28,16.40
2015,06,30,14,29,16.50
2015,06,30,14,30,16.70
2015,06,30,14,31,16.70
2015,06,30,14,32,16.70
2015,06,30,14,33,16.70
2015,06,30,14,34,16.70
2015,06,30,14,35,16.70
2015,06,30,14,36,16.70
2015,06,30,14,37,16.70
2015,06,30,14,38,16.80
2015,06,30,14,39,16.80
2015,06,30,14,40,16.80
2015,06,30,14,41,16.80
2015,06,30,14,42,16.80
2015,06,30,14,43,16.80
2015,06,30,14,44,16.80
2015,06,30,14,45,16.80
2015,06,30,14,46,16.90
2015,06,30,14,47,16.90
2015,06,30,14,48,17.00
2015,06,30,14,49,17.00
2015,06,30,14,50,17.00
2015,06,30,14,51,17.10
2015,06,30,14,52,17.20
2015,06,30,14,53,17.20
2015,06,30,14,54,17.30
2015,06,30,14,55,17.30
2015,06,30,14,56,17.30
2015,06,30,14,57,17.30
2015,06,30,14,58,17.30
2015,06,30,14,59,17.40
2015,06,30,15,00,17.50
2015,06,30,15,01,17.60
2015,06,30,15,02,17.60
2015,06,30,15,03,17.50
2015,06,30,15,04,17.40
2015,06,30,15,05,17.40
2015,06,30,15,06,17.30
2015,06,30,15,07,17.30
2015,06,30,15,08,17.30
2015,06,30,15,09,17.30
2015,06,30,15,10,17.30
2015,06,30,15,11,17.30
2015,06,30,15,12,17.30
2015,06,30,15,13,17.30
2015,06,30,15,14,17.30
2015,06,30,15,15,17.40
2015,06,30,15,16,17.40
2015,06,30,15,17,17.40
2015,06,30,15,18,17.20
2015,06,30,15,19,17.20
2015,06,30,15,20,17.20
2015,06,30,15,21,17.20
2015,06,30,15,22,17.20
2015,06,30,15,23,17.30
2015,06,30,15,24,17.30
2015,06,30,15,25,17.20
2015,06,30,15,26,17.20
2015,06,30,15,27,17.30
2015,06,30,15,28,17.40
2015,06,30,15,29,17.40
2015,06,30,15,30,17.40
2015,06,30,15,31,17.40
2015,06,30,15,32,17.30
2015,06,30,15,33,17.00
2015,06,30,15,34,16.80
2015,06,30,15,35,16.60
2015,06,30,15,36,16.60
2015,06,30,15,37,16.70
2015,06,30,15,38,16.60
2015,06,30,15,39,16.50
2015,06,30,15,40,16.50
2015,06,30,15,41,16.60
2015,06,30,15,42,16.40
2015,06,30,15,43,16.40
2015,06,30,15,44,16.40
2015,06,30,15,45,16.30
2015,06,30,15,46,16.30
2015,06,30,15,47,16.40
2015,06,30,15,48,16.40
2015,06,30,15,49,16.50
2015,06,30,15,50,16.60
2015,06,30,15,51,16.80
2015,06,30,15,52,16.90
2015,06,30,15,53,16.90
2015,06,30,15,54,16.70
2015,06,30,15,55,16.70
2015,06,30,15,56,16.60
2015,06,30,15,57,16.70
2015,06,30,15,58,16.60
2015,06,30,15,59,16.60
2015,06,30,16,00,16.70
2015,06,30,16,01,16.70
2015,06,30,16,02,16.80
2015,06,30,16,03,17.00
2015,06,30,16,04,17.10
2015,06,30,16,05,17.30
2015,06,30,16,06,17.40
2015,06,30,16,07,17.50
2015,06,30,16,08,17.50
2015,06,30,16,09,17.50
2015,06,30,16,10,17.40
2015,06,30,16,11,17.40
2015,06,30,16,12,17.40
2015,06,30,16,13,17.50
2015,06,30,16,14,17.60
2015,06,30,16,15,17.70
2015,06,30,16,16,17.70
2015,06,30,16,17,17.70
2015,06,30,16,18,17.90
2015,06,30,16,19,17.80
2015,06,30,16,20,17.80
2015,06,30,16,21,17.90
2015,06,30,16,22,17.90
2015,06,30,16,23,17.90
2015,06,30,16,24,17.90
2015,06,30,16,25,17.80
2015,06,30,16,26,17.70
2015,06,30,16,27,17.70
2015,06,30,16,28,17.70
2015,06,30,16,29,17.80
2015,06,30,16,30,17.90
2015,06,30,16,31,18.00
2015,06,30,16,32,18.10
2015,06,30,16,33,18.20
2015,06,30,16,34,18.30
2015,06,30,16,35,18.30
2015,06,30,16,36,18.40
2015,06,30,16,37,18.40
2015,06,30,16,38,18.40
2015,06,30,16,39,18.30
2015,06,30,16,40,18.20
2015,06,30,16,41,18.20
2015,06,30,16,42,18.20
2015,06,30,16,43,18.30
2015,06,30,16,44,18.50
2015,06,30,16,45,18.60
2015,06,30,16,46,18.70
2015,06,30,16,47,18.80
2015,06,30,16,48,18.90
2015,06,30,16,49,18.70
2015,06,30,16,50,18.70
2015,06,30,16,51,18.60
2015,06,30,16,52,18.50
2015,06,30,16,53,18.40
2015,06,30,16,54,18.40
2015,06,30,16,55,18.40
2015,06,30,16,56,18.30
2015,06,30,16,57,18.20
2015,06,30,16,58,18.10
2015,06,30,16,59,18.10
2015,06,30,17,00,18.10
2015,06,30,17,01,18.30
2015,06,30,17,02,18.30
2015,06,30,17,03,18.40
2015,06,30,17,04,18.50
2015,06,30,17,05,18.50
2015,06,30,17,06,18.50
2015,06,30,17,07,18.50
2015,06,30,17,08,18.50
2015,06,30,17,09,18.50
2015,06,30,17,10,18.60
2015,06,30,17,11,18.60
2015,06,30,17,12,18.70
2015,06,30,17,13,18.80
2015,06,30,17,14,18.70
2015,06,30,17,15,18.70
2015,06,30,17,16,18.90
2015,06,30,17,17,19.00
2015,06,30,17,18,19.10
2015,06,30,17,19,19.10